| time (UTC) | temp C | wind direction | speed KPH | gust KPH | rain 1hr cm | rain 24hr cm | rain mn cm | humidity % | barometer mb |
| 20260506171239 | 26 | 282 | 4.8 | 6.4 | 0.00 | 0.00 | 0.00 | 27 | 1064.7 |
| 20260506170737 | 26 | 222 | 4.8 | 8.0 | 0.00 | 0.00 | 0.00 | 29 | 1064.9 |
| 20260506170233 | 26 | 338 | 1.6 | 4.8 | 0.00 | 0.00 | 0.00 | 29 | 1065.1 |
| 20260506165732 | 25 | 235 | 3.2 | 4.8 | 0.00 | 0.00 | 0.00 | 29 | 1064.9 |
| 20260506165229 | 25 | 269 | 4.8 | 4.8 | 0.00 | 0.00 | 0.00 | 29 | 1064.6 |
| 20260506164726 | 25 | 283 | 1.6 | 4.8 | 0.00 | 0.00 | 0.00 | 30 | 1064.9 |
| 20260506164222 | 24 | 316 | 3.2 | 4.8 | 0.00 | 0.00 | 0.00 | 30 | 1064.9 |
| 20260506163719 | 24 | 296 | 4.8 | 8.0 | 0.00 | 0.00 | 0.00 | 30 | 1065.0 |
| 20260506163214 | 25 | 281 | 3.2 | 4.8 | 0.00 | 0.00 | 0.00 | 29 | 1064.8 |
| 20260506162710 | 23 | 245 | 4.8 | 14.5 | 0.00 | 0.00 | 0.00 | 31 | 1064.8 |
| 20260506162208 | 23 | 263 | 1.6 | 4.8 | 0.00 | 0.00 | 0.00 | 31 | 1064.8 |
| 20260506161705 | 24 | 259 | 3.2 | 4.8 | 0.00 | 0.00 | 0.00 | 31 | 1064.8 |
| 20260506161202 | 23 | 213 | 3.2 | 4.8 | 0.00 | 0.00 | 0.00 | 31 | 1064.9 |
| 20260506160700 | 23 | 243 | 1.6 | 6.4 | 0.00 | 0.00 | 0.00 | 32 | 1064.8 |
| 20260506160156 | 23 | 269 | 0.0 | 6.4 | 0.00 | 0.00 | 0.00 | 30 | 1064.8 |
| 20260506155655 | 23 | 293 | 3.2 | 6.4 | 0.00 | 0.00 | 0.00 | 32 | 1064.8 |
| 20260506155151 | 22 | 289 | 0.0 | 6.4 | 0.00 | 0.00 | 0.00 | 34 | 1064.8 |
| 20260506153254 | 22 | 305 | 6.4 | 6.4 | 0.00 | 0.00 | 0.00 | 33 | 1064.8 |
| 20260506152750 | 22 | 302 | 3.2 | 4.8 | 0.00 | 0.00 | 0.00 | 33 | 1064.6 |
| 20260506152248 | 22 | 279 | 1.6 | 4.8 | 0.00 | 0.00 | 0.00 | 33 | 1064.8 |
| 20260506151747 | 22 | 251 | 1.6 | 6.4 | 0.00 | 0.00 | 0.00 | 34 | 1064.9 |
| 20260506151243 | 22 | 253 | 3.2 | 3.2 | 0.00 | 0.00 | 0.00 | 34 | 1064.9 |
| 20260506150739 | 21 | 294 | 3.2 | 4.8 | 0.00 | 0.00 | 0.00 | 35 | 1064.7 |
| 20260506150237 | 21 | 48 | 0.0 | 3.2 | 0.00 | 0.00 | 0.00 | 37 | 1064.6 |
| 20260506145734 | 21 | 318 | 3.2 | 4.8 | 0.00 | 0.00 | 0.00 | 38 | 1064.8 |
| 20260506145230 | 21 | 292 | 0.0 | 3.2 | 0.00 | 0.00 | 0.00 | 38 | 1064.6 |
| 20260506144727 | 20 | 336 | 0.0 | 3.2 | 0.00 | 0.00 | 0.00 | 40 | 1064.6 |
| 20260506144224 | 20 | 315 | 0.0 | 4.8 | 0.00 | 0.00 | 0.00 | 41 | 1064.6 |
| 20260506143722 | 20 | 342 | 3.2 | 3.2 | 0.00 | 0.00 | 0.00 | 40 | 1064.7 |
| 20260506143219 | 18 | 336 | 0.0 | 1.6 | 0.00 | 0.00 | 0.00 | 41 | 1064.7 |
| 20260506142718 | 17 | 312 | 3.2 | 3.2 | 0.00 | 0.00 | 0.00 | 43 | 1064.6 |
| 20260506142215 | 17 | 351 | 3.2 | 4.8 | 0.00 | 0.00 | 0.00 | 45 | 1064.6 |
| 20260506141713 | 17 | 343 | 3.2 | 6.4 | 0.00 | 0.00 | 0.00 | 46 | 1064.3 |
| 20260506141211 | 16 | 5 | 0.0 | 3.2 | 0.00 | 0.00 | 0.00 | 51 | 1064.4 |
| 20260506140709 | 15 | 269 | 0.0 | 3.2 | 0.00 | 0.00 | 0.00 | 52 | 1064.3 |
| 20260506140205 | 15 | 292 | 1.6 | 1.6 | 0.00 | 0.00 | 0.00 | 53 | 1064.4 |
| 20260506135702 | 14 | 69 | 0.0 | 1.6 | 0.00 | 0.00 | 0.00 | 54 | 1064.1 |
| 20260506135159 | 14 | 348 | 1.6 | 3.2 | 0.00 | 0.00 | 0.00 | 55 | 1064.1 |
| 20260506134655 | 13 | 7 | 3.2 | 3.2 | 0.00 | 0.00 | 0.00 | 56 | 1064.2 |
| 20260506134151 | 13 | 358 | 1.6 | 3.2 | 0.00 | 0.00 | 0.00 | 56 | 1064.2 |
| 20260506133649 | 13 | 319 | 0.0 | 3.2 | 0.00 | 0.00 | 0.00 | 56 | 1064.3 |
| 20260506133145 | 12 | 13 | 1.6 | 3.2 | 0.00 | 0.00 | 0.00 | 58 | 1064.2 |
| 20260506132643 | 12 | 335 | 1.6 | 3.2 | 0.00 | 0.00 | 0.00 | 59 | 1064.0 |
| 20260506132139 | 12 | 49 | 0.0 | 3.2 | 0.00 | 0.00 | 0.00 | 61 | 1064.0 |
| 20260506131637 | 12 | 281 | 0.0 | 3.2 | 0.00 | 0.00 | 0.00 | 61 | 1064.1 |
| 20260506131133 | 12 | 357 | 0.0 | 3.2 | 0.00 | 0.00 | 0.00 | 60 | 1063.8 |
| 20260506130630 | 11 | 284 | 0.0 | 1.6 | 0.00 | 0.00 | 0.00 | 61 | 1063.8 |
| 20260506130128 | 11 | 324 | 0.0 | 1.6 | 0.00 | 0.00 | 0.00 | 62 | 1063.8 |
| 20260506125626 | 11 | 326 | 0.0 | 1.6 | 0.00 | 0.00 | 0.00 | 62 | 1063.6 |
| 20260506125123 | 11 | 45 | 0.0 | 1.6 | 0.00 | 0.00 | 0.00 | 60 | 1063.6 |
| 20260506124621 | 11 | 326 | 0.0 | 1.6 | 0.00 | 0.00 | 0.00 | 61 | 1063.5 |
| 20260506124118 | 11 | 102 | 0.0 | 3.2 | 0.00 | 0.00 | 0.00 | 64 | 1063.6 |
| 20260506123616 | 11 | 19 | 0.0 | 3.2 | 0.00 | 0.00 | 0.00 | 65 | 1063.6 |
| 20260506123114 | 11 | 52 | 0.0 | 1.6 | 0.00 | 0.00 | 0.00 | 66 | 1063.4 |
| 20260506122610 | 11 | 293 | 0.0 | 1.6 | 0.00 | 0.00 | 0.00 | 63 | 1063.4 |
| 20260506122109 | 11 | 315 | 0.0 | 3.2 | 0.00 | 0.00 | 0.00 | 63 | 1063.2 |
| 20260506121606 | 11 | 9 | 0.0 | 3.2 | 0.00 | 0.00 | 0.00 | 62 | 1063.2 |
| 20260506121102 | 12 | 291 | 0.0 | 3.2 | 0.00 | 0.00 | 0.00 | 59 | 1063.2 |
| 20260506120600 | 12 | 150 | 0.0 | 3.2 | 0.00 | 0.00 | 0.00 | 59 | 1063.4 |
| 20260506120057 | 12 | 74 | 0.0 | 1.6 | 0.00 | 0.00 | 0.00 | 60 | 1062.9 |
| 20260506115555 | 12 | 74 | 0.0 | 1.6 | 0.00 | 0.00 | 0.00 | 60 | 1063.0 |
| 20260506115053 | 12 | 22 | 0.0 | 3.2 | 0.00 | 0.00 | 0.00 | 60 | 1062.9 |
| 20260506114550 | 12 | 343 | 3.2 | 3.2 | 0.00 | 0.00 | 0.00 | 60 | 1063.2 |
| 20260506114048 | 12 | 168 | 1.6 | 3.2 | 0.00 | 0.00 | 0.00 | 61 | 1063.0 |
| 20260506113546 | 11 | 44 | 0.0 | 3.2 | 0.00 | 0.00 | 0.00 | 65 | 1063.2 |
| 20260506113043 | 11 | 271 | 0.0 | 3.2 | 0.00 | 0.00 | 0.00 | 65 | 1063.0 |
| 20260506112540 | 11 | 76 | 0.0 | 1.6 | 0.00 | 0.00 | 0.00 | 66 | 1063.0 |
| 20260506112037 | 11 | 354 | 0.0 | 1.6 | 0.00 | 0.00 | 0.00 | 65 | 1063.2 |
| 20260506111535 | 12 | 322 | 0.0 | 1.6 | 0.00 | 0.00 | 0.00 | 65 | 1063.0 |
| 20260506111032 | 12 | 228 | 1.6 | 3.2 | 0.00 | 0.00 | 0.00 | 64 | 1062.9 |
| 20260506110530 | 12 | 303 | 0.0 | 0.0 | 0.00 | 0.00 | 0.00 | 63 | 1062.9 |
| 20260506110027 | 12 | 269 | 0.0 | 1.6 | 0.00 | 0.00 | 0.00 | 62 | 1063.0 |
| 20260506105522 | 12 | 17 | 3.2 | 3.2 | 0.00 | 0.00 | 0.00 | 63 | 1062.7 |
| 20260506105020 | 12 | 349 | 1.6 | 4.8 | 0.00 | 0.00 | 0.00 | 63 | 1062.8 |
| 20260506104518 | 12 | 321 | 0.0 | 1.6 | 0.00 | 0.00 | 0.00 | 64 | 1062.7 |
| 20260506104016 | 12 | 317 | 1.6 | 3.2 | 0.00 | 0.00 | 0.00 | 65 | 1062.6 |
| 20260506103513 | 12 | 296 | 0.0 | 0.0 | 0.00 | 0.00 | 0.00 | 64 | 1062.7 |
| 20260506103009 | 12 | 265 | 0.0 | 3.2 | 0.00 | 0.00 | 0.00 | 63 | 1062.7 |
| 20260506102508 | 12 | 306 | 0.0 | 1.6 | 0.00 | 0.00 | 0.00 | 63 | 1062.7 |
| 20260506102005 | 12 | 246 | 0.0 | 1.6 | 0.00 | 0.00 | 0.00 | 64 | 1062.6 |
| 20260506101501 | 12 | 275 | 0.0 | 0.0 | 0.00 | 0.00 | 0.00 | 63 | 1062.5 |
| 20260506100958 | 12 | 326 | 0.0 | 0.0 | 0.00 | 0.00 | 0.00 | 64 | 1062.6 |
| 20260506100457 | 12 | 55 | 0.0 | 1.6 | 0.00 | 0.00 | 0.00 | 64 | 1062.5 |
| 20260506095954 | 12 | 229 | 0.0 | 1.6 | 0.00 | 0.00 | 0.00 | 62 | 1062.6 |
| 20260506095453 | 12 | 309 | 0.0 | 1.6 | 0.00 | 0.00 | 0.00 | 62 | 1062.4 |
| 20260506094948 | 13 | 304 | 0.0 | 0.0 | 0.00 | 0.00 | 0.00 | 60 | 1062.5 |
| 20260506094447 | 13 | 242 | 1.6 | 1.6 | 0.00 | 0.00 | 0.00 | 60 | 1062.3 |
| 20260506093944 | 13 | 324 | 0.0 | 3.2 | 0.00 | 0.00 | 0.00 | 60 | 1062.3 |
| 20260506093442 | 13 | 200 | 0.0 | 3.2 | 0.00 | 0.00 | 0.00 | 59 | 1062.4 |
| 20260506092940 | 13 | 321 | 0.0 | 3.2 | 0.00 | 0.00 | 0.00 | 60 | 1062.2 |
| 20260506092438 | 13 | 243 | 0.0 | 1.6 | 0.00 | 0.00 | 0.00 | 61 | 1062.2 |
| 20260506091934 | 13 | 332 | 0.0 | 3.2 | 0.00 | 0.00 | 0.00 | 61 | 1062.2 |
| 20260506091432 | 13 | 325 | 0.0 | 3.2 | 0.00 | 0.00 | 0.00 | 59 | 1062.3 |
| 20260506090929 | 13 | 11 | 0.0 | 3.2 | 0.00 | 0.00 | 0.00 | 59 | 1062.2 |
| 20260506090427 | 13 | 322 | 0.0 | 0.0 | 0.00 | 0.00 | 0.00 | 59 | 1062.1 |
| 20260506085923 | 13 | 309 | 0.0 | 0.0 | 0.00 | 0.00 | 0.00 | 56 | 1062.0 |
| 20260506085420 | 13 | 224 | 0.0 | 0.0 | 0.00 | 0.00 | 0.00 | 56 | 1061.9 |
| 20260506084916 | 13 | 191 | 0.0 | 1.6 | 0.00 | 0.00 | 0.00 | 56 | 1062.1 |
| 20260506084413 | 14 | 309 | 0.0 | 0.0 | 0.00 | 0.00 | 0.00 | 56 | 1062.2 |
| 20260506083909 | 14 | 171 | 0.0 | 3.2 | 0.00 | 0.00 | 0.00 | 55 | 1062.1 |
| 20260506083407 | 14 | 217 | 0.0 | 0.0 | 0.00 | 0.00 | 0.00 | 57 | 1062.1 |
| 20260506082904 | 13 | 227 | 0.0 | 1.6 | 0.00 | 0.00 | 0.00 | 57 | 1061.9 |
| 20260506082401 | 13 | 256 | 0.0 | 0.0 | 0.00 | 0.00 | 0.00 | 56 | 1062.2 |
| 20260506081856 | 13 | 202 | 0.0 | 1.6 | 0.00 | 0.00 | 0.00 | 56 | 1062.1 |
| 20260506081355 | 13 | 14 | 1.6 | 1.6 | 0.00 | 0.00 | 0.00 | 56 | 1062.1 |
| 20260506080852 | 13 | 315 | 0.0 | 1.6 | 0.00 | 0.00 | 0.00 | 57 | 1062.3 |
| 20260506080349 | 14 | 320 | 0.0 | 3.2 | 0.00 | 0.00 | 0.00 | 55 | 1062.2 |
| 20260506073333 | 15 | 309 | 0.0 | 0.0 | 0.00 | 0.00 | 0.00 | 54 | 1062.2 |
| 20260506072830 | 15 | 311 | 0.0 | 0.0 | 0.00 | 0.00 | 0.00 | 51 | 1062.0 |
| 20260506072327 | 15 | 326 | 0.0 | 0.0 | 0.00 | 0.00 | 0.00 | 49 | 1062.0 |
| 20260506071825 | 15 | 326 | 0.0 | 1.6 | 0.00 | 0.00 | 0.00 | 48 | 1061.9 |
| 20260506071323 | 15 | 243 | 0.0 | 0.0 | 0.00 | 0.00 | 0.00 | 50 | 1062.0 |
| 20260506070820 | 15 | 322 | 0.0 | 0.0 | 0.00 | 0.00 | 0.00 | 51 | 1062.0 |
| 20260506070316 | 15 | 230 | 0.0 | 0.0 | 0.00 | 0.00 | 0.00 | 52 | 1061.9 |
| 20260506062254 | 17 | 315 | 0.0 | 1.6 | 0.00 | 0.25 | 0.25 | 43 | 1061.6 |
| 20260506061749 | 17 | 229 | 0.0 | 3.2 | 0.00 | 0.25 | 0.25 | 40 | 1061.8 |
| 20260506061247 | 17 | 226 | 3.2 | 3.2 | 0.00 | 0.25 | 0.25 | 40 | 1061.7 |
| 20260506060745 | 17 | 273 | 0.0 | 3.2 | 0.00 | 0.25 | 0.25 | 40 | 1061.7 |
| 20260506060243 | 17 | 232 | 1.6 | 3.2 | 0.00 | 0.25 | 0.25 | 41 | 1061.6 |
| 20260506051214 | 18 | 237 | 1.6 | 3.2 | 0.00 | 0.25 | 0.25 | 37 | 1061.4 |
| 20260506050713 | 19 | 221 | 3.2 | 3.2 | 0.00 | 0.25 | 0.25 | 37 | 1061.5 |
| 20260506050209 | 19 | 254 | 3.2 | 3.2 | 0.00 | 0.25 | 0.25 | 35 | 1061.4 |
| 20260506044700 | 20 | 246 | 1.6 | 4.8 | 0.00 | 0.25 | 0.25 | 34 | 1061.1 |
| 20260506044157 | 20 | 306 | 3.2 | 3.2 | 0.00 | 0.25 | 0.25 | 34 | 1061.1 |
| 20260506043654 | 20 | 235 | 0.0 | 4.8 | 0.00 | 0.25 | 0.25 | 34 | 1061.1 |
| 20260506043152 | 20 | 272 | 1.6 | 4.8 | 0.00 | 0.25 | 0.25 | 33 | 1061.2 |
| 20260506042651 | 20 | 303 | 3.2 | 3.2 | 0.00 | 0.25 | 0.25 | 33 | 1061.0 |
| 20260506042149 | 20 | 206 | 1.6 | 6.4 | 0.00 | 0.25 | 0.25 | 32 | 1061.2 |
| 20260506041652 | 20 | 314 | 1.6 | 4.8 | 0.00 | 0.25 | 0.25 | 32 | 1060.9 |
| 20260506041143 | 20 | 304 | 0.0 | 3.2 | 0.00 | 0.25 | 0.25 | 32 | 1060.8 |
| 20260506040641 | 20 | 285 | 3.2 | 4.8 | 0.00 | 0.25 | 0.25 | 31 | 1060.8 |
| 20260506040138 | 20 | 283 | 1.6 | 4.8 | 0.00 | 0.25 | 0.25 | 32 | 1060.9 |
| 20260506035635 | 20 | 283 | 0.0 | 4.8 | 0.00 | 0.25 | 0.25 | 31 | 1060.9 |
| 20260506035131 | 20 | 272 | 3.2 | 4.8 | 0.00 | 0.25 | 0.25 | 31 | 1060.6 |
| 20260506034628 | 21 | 214 | 9.7 | 9.7 | 0.00 | 0.25 | 0.25 | 30 | 1060.6 |
| 20260506034125 | 21 | 294 | 3.2 | 8.0 | 0.00 | 0.25 | 0.25 | 30 | 1060.6 |
| 20260506033623 | 21 | 299 | 0.0 | 6.4 | 0.00 | 0.25 | 0.25 | 31 | 1060.4 |
| 20260506033120 | 21 | 274 | 3.2 | 4.8 | 0.00 | 0.25 | 0.25 | 30 | 1060.1 |
| 20260506032617 | 21 | 299 | 4.8 | 6.4 | 0.00 | 0.25 | 0.25 | 30 | 1060.1 |
| 20260506032114 | 21 | 283 | 0.0 | 8.0 | 0.00 | 0.25 | 0.25 | 30 | 1060.1 |
| 20260506031611 | 21 | 274 | 3.2 | 8.0 | 0.00 | 0.25 | 0.25 | 29 | 1060.3 |
| 20260506031108 | 21 | 290 | 3.2 | 9.7 | 0.00 | 0.25 | 0.25 | 29 | 1060.1 |
| 20260506030606 | 21 | 296 | 1.6 | 9.7 | 0.00 | 0.25 | 0.25 | 29 | 1059.9 |
| 20260506030103 | 21 | 2 | 3.2 | 9.7 | 0.00 | 0.25 | 0.25 | 29 | 1059.9 |
| 20260506025600 | 21 | 241 | 0.0 | 8.0 | 0.00 | 0.25 | 0.25 | 29 | 1059.8 |
| 20260506025056 | 21 | 299 | 3.2 | 6.4 | 0.00 | 0.25 | 0.25 | 29 | 1059.6 |
| 20260506024553 | 22 | 323 | 3.2 | 8.0 | 0.00 | 0.25 | 0.25 | 28 | 1059.5 |
| 20260506024050 | 22 | 281 | 3.2 | 9.7 | 0.00 | 0.25 | 0.25 | 28 | 1059.5 |
| 20260506023545 | 22 | 277 | 3.2 | 8.0 | 0.00 | 0.25 | 0.25 | 28 | 1059.5 |
| 20260506023043 | 22 | 302 | 4.8 | 6.4 | 0.00 | 0.25 | 0.25 | 28 | 1059.3 |
| 20260506022541 | 22 | 294 | 4.8 | 11.3 | 0.00 | 0.25 | 0.25 | 27 | 1059.3 |
| 20260506022038 | 22 | 301 | 1.6 | 12.9 | 0.00 | 0.25 | 0.25 | 27 | 1059.3 |
| 20260506021535 | 22 | 303 | 6.4 | 9.7 | 0.00 | 0.25 | 0.25 | 27 | 1059.1 |
| 20260506021033 | 22 | 308 | 4.8 | 6.4 | 0.00 | 0.25 | 0.25 | 27 | 1058.9 |
| 20260506020530 | 22 | 274 | 4.8 | 8.0 | 0.00 | 0.25 | 0.25 | 26 | 1059.0 |
| 20260506020027 | 22 | 249 | 6.4 | 9.7 | 0.00 | 0.25 | 0.25 | 27 | 1059.0 |
| 20260506015525 | 23 | 251 | 4.8 | 8.0 | 0.00 | 0.25 | 0.25 | 27 | 1058.9 |
| 20260506015021 | 23 | 301 | 1.6 | 14.5 | 0.00 | 0.25 | 0.25 | 27 | 1059.0 |
| 20260506014519 | 23 | 292 | 4.8 | 11.3 | 0.00 | 0.25 | 0.25 | 26 | 1058.9 |
| 20260506014015 | 23 | 242 | 6.4 | 17.7 | 0.00 | 0.25 | 0.25 | 26 | 1058.7 |
| 20260506013513 | 23 | 265 | 3.2 | 9.7 | 0.00 | 0.25 | 0.25 | 26 | 1058.7 |
| 20260506013009 | 23 | 294 | 6.4 | 9.7 | 0.00 | 0.25 | 0.25 | 26 | 1059.0 |
| 20260506012505 | 23 | 210 | 3.2 | 9.7 | 0.00 | 0.25 | 0.25 | 26 | 1058.8 |
| 20260506012002 | 24 | 293 | 6.4 | 14.5 | 0.00 | 0.25 | 0.25 | 26 | 1058.8 |
| 20260506011500 | 25 | 225 | 4.8 | 9.7 | 0.00 | 0.25 | 0.25 | 26 | 1058.6 |
| 20260506010956 | 25 | 262 | 6.4 | 12.9 | 0.00 | 0.25 | 0.25 | 26 | 1058.6 |
| 20260506010455 | 25 | 282 | 4.8 | 16.1 | 0.00 | 0.25 | 0.25 | 26 | 1058.5 |
| 20260506005951 | 25 | 268 | 3.2 | 9.7 | 0.00 | 0.25 | 0.25 | 26 | 1058.6 |
| 20260506005449 | 25 | 235 | 6.4 | 29.0 | 0.00 | 0.25 | 0.25 | 26 | 1058.5 |
| 20260506004944 | 25 | 269 | 8.0 | 12.9 | 0.00 | 0.25 | 0.25 | 25 | 1058.4 |
| 20260506004442 | 25 | 275 | 3.2 | 14.5 | 0.00 | 0.25 | 0.25 | 25 | 1058.3 |
| 20260506003938 | 25 | 268 | 3.2 | 19.3 | 0.00 | 0.25 | 0.25 | 25 | 1058.4 |
| 20260506003435 | 26 | 297 | 8.0 | 9.7 | 0.00 | 0.25 | 0.25 | 25 | 1058.5 |
| 20260506002931 | 26 | 231 | 12.9 | 14.5 | 0.00 | 0.25 | 0.25 | 25 | 1058.3 |
| 20260506002427 | 26 | 265 | 3.2 | 11.3 | 0.00 | 0.25 | 0.25 | 25 | 1058.4 |
| 20260506001923 | 25 | 284 | 3.2 | 12.9 | 0.00 | 0.25 | 0.25 | 26 | 1058.3 |
| 20260506001420 | 26 | 274 | 6.4 | 9.7 | 0.00 | 0.25 | 0.25 | 25 | 1058.3 |
| 20260506000917 | 26 | 267 | 9.7 | 9.7 | 0.00 | 0.25 | 0.25 | 25 | 1058.2 |
| 20260506000416 | 26 | 285 | 3.2 | 16.1 | 0.00 | 0.25 | 0.25 | 25 | 1058.1 |
| 20260505235911 | 26 | 275 | 6.4 | 19.3 | 0.00 | 0.25 | 0.25 | 26 | 1058.3 |
| 20260505235409 | 26 | 322 | 3.2 | 12.9 | 0.00 | 0.25 | 0.25 | 25 | 1058.2 |
| 20260505234906 | 26 | 304 | 3.2 | 12.9 | 0.00 | 0.25 | 0.25 | 26 | 1058.2 |
| 20260505234403 | 26 | 213 | 6.4 | 12.9 | 0.00 | 0.25 | 0.25 | 25 | 1058.1 |
| 20260505233900 | 25 | 248 | 8.0 | 11.3 | 0.00 | 0.25 | 0.25 | 26 | 1058.2 |
| 20260505233358 | 26 | 279 | 8.0 | 11.3 | 0.00 | 0.25 | 0.25 | 25 | 1058.1 |
| 20260505232855 | 26 | 219 | 3.2 | 16.1 | 0.00 | 0.25 | 0.25 | 25 | 1058.1 |
| 20260505232353 | 26 | 255 | 9.7 | 9.7 | 0.00 | 0.25 | 0.25 | 25 | 1058.2 |
| 20260505231849 | 26 | 250 | 3.2 | 14.5 | 0.00 | 0.25 | 0.25 | 26 | 1058.1 |
| 20260505231347 | 26 | 295 | 3.2 | 14.5 | 0.00 | 0.25 | 0.25 | 26 | 1058.1 |
| 20260505230845 | 26 | 312 | 6.4 | 14.5 | 0.00 | 0.25 | 0.25 | 27 | 1058.1 |
| 20260505230342 | 26 | 189 | 3.2 | 14.5 | 0.00 | 0.25 | 0.25 | 25 | 1058.2 |
| 20260505225839 | 27 | 249 | 3.2 | 12.9 | 0.00 | 0.25 | 0.25 | 26 | 1058.2 |
| 20260505225336 | 26 | 223 | 8.0 | 19.3 | 0.00 | 0.25 | 0.25 | 26 | 1058.3 |
| 20260505224830 | 26 | 278 | 6.4 | 20.9 | 0.00 | 0.25 | 0.25 | 26 | 1058.2 |
| 20260505224329 | 26 | 213 | 3.2 | 11.3 | 0.00 | 0.25 | 0.25 | 27 | 1058.2 |
| 20260505223826 | 26 | 249 | 6.4 | 14.5 | 0.00 | 0.25 | 0.25 | 27 | 1058.6 |
| 20260505223323 | 27 | 296 | 9.7 | 12.9 | 0.00 | 0.25 | 0.25 | 26 | 1058.3 |
| 20260505222818 | 27 | 273 | 4.8 | 14.5 | 0.00 | 0.25 | 0.25 | 26 | 1058.4 |
| 20260505222315 | 26 | 260 | 4.8 | 9.7 | 0.00 | 0.25 | 0.25 | 27 | 1058.4 |
| 20260505221812 | 26 | 274 | 8.0 | 14.5 | 0.00 | 0.25 | 0.25 | 26 | 1058.4 |
| 20260505221309 | 26 | 226 | 11.3 | 22.5 | 0.00 | 0.25 | 0.25 | 27 | 1058.6 |
| 20260505220806 | 26 | 246 | 4.8 | 12.9 | 0.00 | 0.25 | 0.25 | 26 | 1058.8 |
| 20260505220303 | 26 | 233 | 12.9 | 20.9 | 0.00 | 0.25 | 0.25 | 27 | 1058.6 |
| 20260505215801 | 26 | 238 | 6.4 | 20.9 | 0.00 | 0.25 | 0.25 | 27 | 1058.5 |
| 20260505215258 | 27 | 316 | 1.6 | 14.5 | 0.00 | 0.25 | 0.25 | 26 | 1058.6 |
| 20260505214756 | 27 | 261 | 4.8 | 24.1 | 0.00 | 0.25 | 0.25 | 26 | 1058.7 |
| 20260505214253 | 27 | 293 | 4.8 | 11.3 | 0.00 | 0.25 | 0.25 | 27 | 1058.9 |
| 20260505213750 | 26 | 249 | 4.8 | 19.3 | 0.00 | 0.25 | 0.25 | 27 | 1058.7 |
| 20260505213248 | 27 | 298 | 3.2 | 14.5 | 0.00 | 0.25 | 0.25 | 27 | 1058.8 |
| 20260505212743 | 26 | 233 | 4.8 | 8.0 | 0.00 | 0.25 | 0.25 | 28 | 1058.9 |
| 20260505212241 | 25 | 247 | 8.0 | 22.5 | 0.00 | 0.25 | 0.25 | 29 | 1058.9 |
| 20260505211738 | 26 | 294 | 6.4 | 11.3 | 0.00 | 0.25 | 0.25 | 28 | 1058.9 |
| 20260505211235 | 26 | 228 | 4.8 | 14.5 | 0.00 | 0.25 | 0.25 | 28 | 1058.9 |
| 20260505210731 | 26 | 256 | 4.8 | 6.4 | 0.00 | 0.25 | 0.25 | 29 | 1059.1 |
| 20260505210228 | 26 | 222 | 3.2 | 14.5 | 0.00 | 0.25 | 0.25 | 29 | 1059.1 |
| 20260505205726 | 26 | 287 | 6.4 | 8.0 | 0.00 | 0.25 | 0.25 | 30 | 1059.1 |
| 20260505205224 | 26 | 305 | 8.0 | 11.3 | 0.00 | 0.25 | 0.25 | 30 | 1059.1 |
| 20260505204720 | 26 | 209 | 3.2 | 19.3 | 0.00 | 0.25 | 0.25 | 31 | 1059.3 |
| 20260505204218 | 25 | 265 | 4.8 | 12.9 | 0.00 | 0.25 | 0.25 | 32 | 1059.1 |
| 20260505203715 | 26 | 248 | 3.2 | 14.5 | 0.00 | 0.25 | 0.25 | 32 | 1059.4 |
| 20260505203212 | 27 | 213 | 3.2 | 17.7 | 0.00 | 0.25 | 0.25 | 31 | 1059.5 |
| 20260505202707 | 27 | 244 | 3.2 | 12.9 | 0.00 | 0.25 | 0.25 | 31 | 1059.4 |
| 20260505202204 | 26 | 265 | 3.2 | 12.9 | 0.00 | 0.25 | 0.25 | 31 | 1059.4 |
| 20260505201700 | 26 | 240 | 19.3 | 25.7 | 0.00 | 0.25 | 0.25 | 32 | 1059.7 |
| 20260505201158 | 26 | 262 | 4.8 | 16.1 | 0.00 | 0.25 | 0.25 | 34 | 1059.4 |
| 20260505200656 | 26 | 252 | 4.8 | 11.3 | 0.00 | 0.25 | 0.25 | 34 | 1059.4 |
| 20260505200153 | 26 | 281 | 6.4 | 9.7 | 0.00 | 0.25 | 0.25 | 35 | 1059.4 |
| 20260505195648 | 25 | 257 | 6.4 | 14.5 | 0.00 | 0.25 | 0.25 | 36 | 1059.6 |
| 20260505195146 | 27 | 281 | 3.2 | 9.7 | 0.00 | 0.25 | 0.25 | 34 | 1059.6 |
| 20260505194643 | 27 | 264 | 4.8 | 14.5 | 0.00 | 0.25 | 0.25 | 34 | 1059.7 |
| 20260505194139 | 26 | 244 | 4.8 | 12.9 | 0.00 | 0.25 | 0.25 | 36 | 1059.6 |
| 20260505193636 | 26 | 268 | 6.4 | 9.7 | 0.00 | 0.25 | 0.25 | 35 | 1059.7 |
| 20260505193133 | 26 | 293 | 3.2 | 14.5 | 0.00 | 0.25 | 0.25 | 36 | 1059.6 |
| 20260505192632 | 26 | 223 | 6.4 | 14.5 | 0.00 | 0.25 | 0.25 | 36 | 1059.8 |
| 20260505192129 | 26 | 197 | 6.4 | 11.3 | 0.00 | 0.25 | 0.25 | 37 | 1059.8 |
| 20260505191627 | 25 | 231 | 4.8 | 14.5 | 0.00 | 0.25 | 0.25 | 36 | 1059.9 |
| 20260505191125 | 26 | 209 | 4.8 | 14.5 | 0.00 | 0.25 | 0.25 | 37 | 1060.0 |
| 20260505190620 | 26 | 228 | 8.0 | 14.5 | 0.00 | 0.25 | 0.25 | 36 | 1060.0 |
| 20260505190115 | 26 | 261 | 6.4 | 12.9 | 0.00 | 0.25 | 0.25 | 35 | 1060.1 |
| 20260505185612 | 25 | 243 | 3.2 | 9.7 | 0.00 | 0.25 | 0.25 | 36 | 1060.1 |
| 20260505185109 | 25 | 218 | 8.0 | 12.9 | 0.00 | 0.25 | 0.25 | 37 | 1060.3 |
| 20260505184605 | 25 | 223 | 8.0 | 8.0 | 0.00 | 0.25 | 0.25 | 37 | 1060.2 |
| 20260505184102 | 25 | 269 | 3.2 | 14.5 | 0.00 | 0.25 | 0.25 | 38 | 1060.3 |
| 20260505183559 | 25 | 178 | 1.6 | 6.4 | 0.00 | 0.25 | 0.25 | 39 | 1060.3 |
| 20260505183057 | 24 | 199 | 6.4 | 17.7 | 0.00 | 0.25 | 0.25 | 39 | 1060.7 |
| 20260505182552 | 23 | 220 | 4.8 | 9.7 | 0.00 | 0.25 | 0.25 | 41 | 1060.4 |
| 20260505182049 | 22 | 235 | 4.8 | 4.8 | 0.00 | 0.25 | 0.25 | 42 | 1060.4 |
| 20260505181546 | 23 | 227 | 9.7 | 16.1 | 0.00 | 0.25 | 0.25 | 42 | 1060.7 |
| 20260505181044 | 23 | 228 | 6.4 | 11.3 | 0.00 | 0.25 | 0.25 | 42 | 1060.4 |
| 20260505180539 | 23 | 301 | 6.4 | 8.0 | 0.00 | 0.25 | 0.25 | 41 | 1060.3 |
| 20260505180037 | 23 | 243 | 4.8 | 9.7 | 0.00 | 0.25 | 0.25 | 42 | 1060.6 |
| 20260505175537 | 23 | 245 | 3.2 | 11.3 | 0.00 | 0.25 | 0.25 | 41 | 1060.4 |
| 20260505175034 | 23 | 258 | 3.2 | 6.4 | 0.00 | 0.25 | 0.25 | 41 | 1060.4 |
| 20260505174531 | 23 | 292 | 4.8 | 9.7 | 0.00 | 0.25 | 0.25 | 45 | 1060.4 |
| 20260505174027 | 22 | 237 | 4.8 | 8.0 | 0.00 | 0.25 | 0.25 | 43 | 1060.4 |
| 20260505173524 | 23 | 216 | 4.8 | 12.9 | 0.00 | 0.25 | 0.25 | 44 | 1060.4 |
| 20260505173021 | 22 | 229 | 6.4 | 12.9 | 0.00 | 0.25 | 0.25 | 45 | 1060.4 |
| 20260505172519 | 24 | 249 | 4.8 | 9.7 | 0.00 | 0.25 | 0.25 | 44 | 1060.6 |
| 20260505172015 | 24 | 190 | 4.8 | 9.7 | 0.00 | 0.25 | 0.25 | 44 | 1060.3 |
| 20260505171510 | 23 | 214 | 4.8 | 11.3 | 0.00 | 0.25 | 0.25 | 46 | 1060.7 |